Torna al catalogo

Grifon-3

AttivoScienzaSSO
NORAD 67280·PAYLOAD·🇮🇷 Iran

Lanciato Dec 28, 2025 da Vostochny Cosmodrome

Loading…

Prossimi Passaggi (prossime 24 ore)

TLE

AggiornatoSource: Space-Track

Epoca: Sep 13, 2026, 22:04 UTC

1 67280U 25313AJ  26256.91966773  .00003998  00000-0  17177-3 0  9991
2 67280  97.3926 330.3157 0014192  54.4964 305.7594 15.23161437 39459

Traccia Grifon-3 in tempo reale con AllMySat

Download on the App Store